TimeCST,TemperatureF,Dew PointF,Humidity,Sea Level PressureIn,VisibilityMPH,Wind Direction,Wind SpeedMPH,Gust SpeedMPH,PrecipitationIn,Events,Conditions,WindDirDegrees,DateUTC
12:00 AM,24,18,68,29.98,9,Calm,Calm,,,,,,2013-01-10 06:00:00
12:00 AM,23.0,17.6,80,29.97,15.0,South,16.1,24.2,N/A,,Mostly Cloudy,170,2013-01-10 06:00:00
1:00 AM,24.8,19.4,80,29.95,15.0,SSE,21.9,-,N/A,,Mostly Cloudy,160,2013-01-10 07:00:00
2:00 AM,24.8,21.2,86,29.93,15.0,South,16.1,23.0,N/A,,Mostly Cloudy,170,2013-01-10 08:00:00
3:00 AM,26.6,21.2,80,29.90,15.0,South,27.6,34.5,N/A,,Mostly Cloudy,170,2013-01-10 09:00:00
4:00 AM,26.6,21.2,80,29.86,15.0,South,23.0,29.9,N/A,Snow,Low Drifting Snow,170,2013-01-10 10:00:00
5:00 AM,28.4,23.0,80,29.81,15.0,South,24.2,29.9,N/A,Snow,Low Drifting Snow,170,2013-01-10 11:00:00
6:00 AM,28,24,78,29.79,9,Calm,Calm,,,,,,2013-01-10 12:00:00
6:00 AM,28.4,24.8,86,29.78,15.0,SSE,18.4,24.2,N/A,Snow,Low Drifting Snow,160,2013-01-10 12:00:00
7:00 AM,32.0,26.6,80,29.75,15.0,SSE,24.2,31.1,N/A,Snow,Low Drifting Snow,160,2013-01-10 13:00:00
8:00 AM,30.2,26.6,86,29.73,15.0,South,19.6,28.8,N/A,,Overcast,170,2013-01-10 14:00:00
9:00 AM,30.2,26.6,86,29.74,15.0,South,17.3,-,N/A,,Overcast,170,2013-01-10 15:00:00
10:00 AM,28.4,24.8,86,29.73,15.0,South,11.5,-,N/A,,Overcast,180,2013-01-10 16:00:00
11:00 AM,30.2,26.6,86,29.70,15.0,South,20.7,-,N/A,,Overcast,180,2013-01-10 17:00:00
12:00 PM,34,29,73,29.70,9,Calm,Calm,,,,,,2013-01-10 18:00:00
12:00 PM,33.8,28.4,81,29.70,15.0,South,20.7,-,N/A,,Overcast,190,2013-01-10 18:00:00
1:00 PM,35.6,30.2,81,29.69,15.0,SSW,17.3,-,N/A,,Overcast,200,2013-01-10 19:00:00
2:00 PM,37.4,30.2,75,29.69,15.0,South,16.1,-,N/A,,Overcast,190,2013-01-10 20:00:00
3:00 PM,37.4,30.2,75,29.70,15.0,South,11.5,-,N/A,,Overcast,190,2013-01-10 21:00:00
4:00 PM,35.6,30.2,81,29.71,15.0,SSW,10.4,-,N/A,,Overcast,200,2013-01-10 22:00:00
5:00 PM,28.4,26.6,93,29.71,15.0,NNW,5.8,-,N/A,,Overcast,340,2013-01-10 23:00:00
6:00 PM,28,26,88,29.73,9,Calm,Calm,,,,,,2013-01-11 00:00:00
6:00 PM,28.4,26.6,93,29.72,15.0,NNE,9.2,-,N/A,,Overcast,30,2013-01-11 00:00:00
7:00 PM,28.4,24.8,86,29.70,15.0,NE,9.2,-,N/A,,Overcast,50,2013-01-11 01:00:00
8:00 PM,26.6,23.0,86,29.70,15.0,NNE,11.5,-,N/A,,Overcast,20,2013-01-11 02:00:00
9:00 PM,24.8,23.0,93,29.69,15.0,North,10.4,-,N/A,,Overcast,10,2013-01-11 03:00:00
10:00 PM,24.8,23.0,93,29.68,15.0,North,11.5,-,N/A,,Overcast,10,2013-01-11 04:00:00
11:00 PM,24.8,23.0,93,29.68,15.0,North,15.0,-,N/A,,Overcast,10,2013-01-11 05:00:00
11:08 PM,24.8,-9999,N/A,-9999,15.0,North,16.1,-,N/A,,Overcast,10,2013-01-11 05:08:00